Location: Unspecified
(35.7250°N, 0.0000°E)
Time: 04:01:49
(UTC+00:00)

SR - Pass Details

Date: 28 June 2019
Orbit: 580 x 876 km, 66.7° (Epoch: 19 July)

Event Time Altitude Azimuth Distance (km) Brightness Sun altitude
Exits shadow 03:17:54 10° 282° (WNW) 1,932 ? -15.2°
Reaches altitude 10° 03:18:06 10° 285° (WNW) 1,898 ? -15.1°
Maximum altitude 03:19:59 13° 311° (NW) 1,740 ? -14.9°
Drops below altitude 10° 03:21:53 10° 338° (NNW) 1,924 ? -14.6°
Sets 03:25:26 0° 8° (N) 2,869 ? -14.1°
